SL-16 DEB, 22575

Orbit data source: Space-Track

SL-16 DEB, 22575 is space debris in LEO originally from a launch on Fri, 26 Mar 1993 UTC launched from the Tyuratam Missile And Space Complex (TTMTR). Debris objects in space refer to the collection of defunct objects orbiting the Earth. Examples of debris include non-operational satellites, rocket bodies, and fragments generated from explosions, collisions, or faulty payload assembly.

Loading next visibility...
Identifier
22575, 1993-016C
Orbit
LEO
Country
Flag of CISCIS
Related business
Manufacturer
Yuzhnoe
Mission
Spacecraft
Bus & Motor
SEP MOTOR COVER, Unknown motor
Mass
~0 kg wet, ~1 kg dry
Launch date (UTC)
1993-03-26 (33 years ago)
Launch vehicle
Unknown
Launch site
Tyuratam Missile And Space Complex (TTMTR)
Object type
Payload
Rocket body
Debris
Shape & HBR
Unknown shape, 0.1 m
Radar Cross Section
Small (<0.1 m²)

Expand to show TLE details & history
Last TLE update: 17 hours ago

TLE from 17 hours ago
0 SL-16 DEB
1 22575U 93016C   25348.89178728  .00000142  00000-0  17039-3 0  9992
2 22575  71.0058 297.4613 0202575  67.7507   3.1482 13.73350598638918
Epoch: 2025-12-14T21:24Z
TLE epoch observation values (Epoch: 2025-12-14T21:24:10.420Z)
Latitude
63.51115°
Longitude
-63.98246°
Altitude
848.952 km
Speed
7.509 km/s
True Right ascension
22h 43m 26s
True Declination
63° 22' 31"
Sunlit
Object was in daylight at epoch
Visualization orbit readout
Latitude
Unknown
Longitude
Unknown
Altitude
Unknown
Speed
Unknown
Apparent Right ascension
Unknown
Apparent Declination
Unknown
Sunlit
N/A
Visualization observer readout
Local Sidereal Time
13:25:38
Azimuth
Unknown
Elevation
Unknown
Doppler factor
Unknown
Orbital elements
Apogee altitude
1,134.7 km
Perigee altitude
836.361 km
Semi-major axis
7,363.668 km
Eccentricity
0.02026
Inclination
71.0058°
RAAN
297.4613°
Arg. of periapsis
67.7507°
True anomaly
3.27899°
Mean anomaly
3.1482°
Eccentric anomaly
3.21326°
Mean motion
3.4348 °/min
Orbital period
104.81 mins
BSTAR
0.00017039
Loading maneuver chart data...
Computing Atmospheric mass density...
Loading historical data...
Loading historical data...
Loading historical data...
Loading historical data...
Loading historical data...
Loading historical data...
Loading historical data...

Documentation

Showing up to 5 results
|